This demonstration page uses our WeatherBlox Daily Observations layout. Learn more.

Left ArrowRight Arrow

41.12389, -100.76542

Hourly Observations for May 1, 2017

Temp ( °F °C ) Dew Point ( °F °C ) Humidity (%) Winds ( mph kmh ) Pressure ( in mb ) Visibility ( mi km ) Precip ( " mm )
12:53 am 00:53 Clear 44 6.7 21 -6.1 40 40 NNW 12 19 29.72 1007 10 16 0.00 0.00
1:53 am 01:53 Clear 40 4.4 24 -4.4 53 53 NW 9 15 29.74 1007 10 16 0.00 0.00
2:53 am 02:53 Clear 34 1.1 25 -3.9 70 70 WNW 12 19 29.75 1007 10 16 0.00 0.00
3:53 am 03:53 Clear 32 0 24 -4.4 73 73 WNW 8 13 29.77 1008 10 16 0.00 0.00
4:53 am 04:53 Clear 34 1.1 24 -4.4 67 67 NW 10 17 29.80 1009 10 16 0.00 0.00
5:53 am 05:53 Clear 33 0.6 25 -3.9 72 72 NW 13 20 29.80 1009 10 16 0.00 0.00
6:53 am 06:53 Sunny 29 -1.7 24 -4.4 82 82 WNW 9 15 29.82 1010 10 16 0.00 0.00
7:53 am 07:53 Sunny 38 3.3 27 -2.8 65 65 WNW 12 19 29.81 1010 10 16 0.00 0.00
8:53 am 08:53 Sunny 46 7.8 30 -1.1 54 54 WNW 10 17 29.81 1009 10 16 0.00 0.00
9:53 am 09:53 Sunny 54 12.2 32 0 43 43 WNW 10 17 29.78 1008 10 16 0.00 0.00
10:53 am 10:53 Sunny 60 15.6 28 -2.2 30 30 NW 23 37 29.76 1008 10 16 0.00 0.00
11:53 am 11:53 Sunny 63 17.2 30 -1.1 29 29 NW 18 30 29.75 1008 10 16 0.00 0.00
12:53 pm 12:53 Mostly Sunny 64 17.8 34 1.1 33 33 WNW 21 33 29.75 1008 10 16 0.00 0.00
1:53 pm 13:53 Mostly Cloudy 66 18.9 40 4.4 39 39 WNW 22 35 29.75 1008 10 16 0.00 0.00
2:53 pm 14:53 Mostly Sunny 67 19.4 40 4.4 37 37 NW 23 37 29.76 1008 10 16 0.00 0.00
3:53 pm 15:53 Mostly Cloudy 65 18.3 38 3.3 37 37 NW 21 33 29.78 1008 10 16 0.00 0.03
4:53 pm 16:53 Cloudy 63 17.2 37 2.8 38 38 NNW 21 33 29.80 1009 10 16 0.00 0.00
5:53 pm 17:53 Sunny 63 17.2 38 3.3 40 40 NW 18 30 29.82 1010 10 16 0.00 0.00
6:53 pm 18:53 Cloudy 41 5 30 -1 66 66 N 23 37 29.80 1009 10 16 0.00 0.00
7:53 pm 19:53 Partly Cloudy 56 13.3 40 4.4 55 55 N 24 39 29.88 1012 10 16 0.00 0.03
8:53 pm 20:53 Clear 48 8.9 38 3.3 68 68 NW 9 15 29.91 1013 10 16 0.00 0.00
9:53 pm 21:53 Clear 49 9.4 38 3.3 66 66 NW 13 20 29.91 1013 10 16 0.00 0.00
10:53 pm 22:53 Clear 44 6.7 37 2.8 76 76 WNW 9 15 29.94 1014 10 16 0.00 0.00
11:53 pm 23:53 Mostly Clear 42 5.6 37 2.8 82 82 W 8 13 29.95 1014 10 16 0.00 0.00

Powered by AerisWeather